Hourly Weather Kitnemuchash

Today, 30 July, Friday

Time Temperature Precipitation Wind Pressure Humidity
00:00 +15°C° 0 mm 2 mps 740 mmHg 97%
01:00 +15°C° 0 mm 2 mps 740 mmHg 97%
02:00 +15°C° 0 mm 2 mps 740 mmHg 97%
03:00 +14°C° 0 mm 2 mps 740 mmHg 96%
04:00 +15°C° 0 mm 2 mps 740 mmHg 95%
05:00 +16°C° 0 mm 3 mps 740 mmHg 93%
06:00 +17°C° 0 mm 3 mps 740 mmHg 91%
07:00 +19°C° 0 mm 3 mps 740 mmHg 84%
08:00 +21°C° 0 mm 4 mps 740 mmHg 77%
09:00 +23°C° 0 mm 5 mps 740 mmHg 71%
10:00 +23°C° 0.2 mm 5 mps 740 mmHg 68%
11:00 +25°C° 0.2 mm 5 mps 740 mmHg 65%
12:00 +26°C° 0.2 mm 5 mps 740 mmHg 63%
13:00 +26°C° 0.2 mm 5 mps 740 mmHg 59%
14:00 +27°C° 0.2 mm 4 mps 740 mmHg 55%
15:00 +28°C° 0.2 mm 4 mps 740 mmHg 51%
16:00 +27°C° 0 mm 4 mps 740 mmHg 54%
17:00 +26°C° 0 mm 3 mps 740 mmHg 57%
18:00 +26°C° 0 mm 2 mps 740 mmHg 60%
19:00 +25°C° 0 mm 2 mps 740 mmHg 61%
20:00 +24°C° 0 mm 1 mps 741 mmHg 62%
21:00 +23°C° 0 mm 1 mps 741 mmHg 63%
22:00 +22°C° 0 mm 1 mps 741 mmHg 65%
23:00 +22°C° 0 mm 1 mps 741 mmHg 67%

Tomorrow, 31 July, Saturday

Time Temperature Precipitation Wind Pressure Humidity
00:00 +20°C° 0 mm 2 mps 741 mmHg 68%
01:00 +20°C° 0 mm 2 mps 740 mmHg 72%
02:00 +19°C° 0 mm 2 mps 740 mmHg 76%
03:00 +19°C° 0 mm 3 mps 740 mmHg 80%
04:00 +19°C° 0.1 mm 3 mps 740 mmHg 84%
05:00 +19°C° 0.1 mm 2 mps 740 mmHg 87%
06:00 +19°C° 0.1 mm 2 mps 740 mmHg 91%
07:00 +20°C° 0 mm 3 mps 740 mmHg 86%
08:00 +22°C° 0 mm 4 mps 740 mmHg 80%
09:00 +23°C° 0 mm 5 mps 740 mmHg 74%
10:00 +23°C° 0.6 mm 5 mps 739 mmHg 74%
11:00 +25°C° 0.6 mm 5 mps 739 mmHg 74%
12:00 +25°C° 0.6 mm 5 mps 739 mmHg 73%
13:00 +26°C° 0.6 mm 5 mps 739 mmHg 71%
14:00 +26°C° 0.6 mm 6 mps 739 mmHg 70%
15:00 +26°C° 0.6 mm 6 mps 739 mmHg 68%
16:00 +26°C° 0.3 mm 5 mps 739 mmHg 67%
17:00 +26°C° 0.3 mm 4 mps 739 mmHg 67%
18:00 +25°C° 0.3 mm 4 mps 740 mmHg 67%
19:00 +24°C° 0 mm 3 mps 740 mmHg 68%
20:00 +21°C° 0 mm 3 mps 740 mmHg 69%
21:00 +20°C° 0 mm 3 mps 741 mmHg 70%
22:00 +19°C° 0 mm 3 mps 741 mmHg 71%
23:00 +18°C° 0 mm 3 mps 741 mmHg 71%

Day after tomorrow, 1 August, Sunday

Time Temperature Precipitation Wind Pressure Humidity
00:00 +17°C° 0 mm 4 mps 741 mmHg 72%
01:00 +17°C° 0 mm 4 mps 741 mmHg 71%
02:00 +17°C° 0 mm 4 mps 742 mmHg 69%
03:00 +17°C° 0 mm 4 mps 742 mmHg 68%
04:00 +18°C° 0 mm 3 mps 742 mmHg 68%
05:00 +18°C° 0 mm 3 mps 743 mmHg 67%
06:00 +19°C° 0 mm 3 mps 743 mmHg 67%
07:00 +20°C° 0 mm 4 mps 743 mmHg 60%
08:00 +22°C° 0 mm 5 mps 744 mmHg 54%
09:00 +24°C° 0 mm 6 mps 744 mmHg 48%
10:00 +26°C° 0 mm 6 mps 744 mmHg 45%
11:00 +26°C° 0 mm 6 mps 744 mmHg 43%
12:00 +27°C° 0 mm 6 mps 744 mmHg 40%
13:00 +27°C° 0 mm 6 mps 745 mmHg 39%
14:00 +28°C° 0 mm 6 mps 745 mmHg 38%
15:00 +28°C° 0 mm 6 mps 745 mmHg 37%
16:00 +27°C° 0 mm 5 mps 745 mmHg 41%
17:00 +26°C° 0 mm 4 mps 745 mmHg 45%
18:00 +26°C° 0 mm 3 mps 745 mmHg 50%
19:00 +24°C° 0 mm 3 mps 745 mmHg 53%
20:00 +22°C° 0 mm 3 mps 745 mmHg 56%
21:00 +21°C° 0 mm 2 mps 745 mmHg 59%
22:00 +21°C° 0 mm 2 mps 746 mmHg 59%
23:00 +21°C° 0 mm 2 mps 746 mmHg 59%

2 August, Monday

Time Temperature Precipitation Wind Pressure Humidity
00:00 +21°C° 0 mm 2 mps 746 mmHg 60%
01:00 +20°C° 0 mm 2 mps 746 mmHg 64%
02:00 +20°C° 0 mm 2 mps 745 mmHg 68%
03:00 +19°C° 0 mm 3 mps 745 mmHg 73%
04:00 +19°C° 0.2 mm 3 mps 745 mmHg 75%
05:00 +20°C° 0.2 mm 3 mps 745 mmHg 78%
06:00 +20°C° 0.2 mm 3 mps 745 mmHg 80%
07:00 +22°C° 0 mm 4 mps 745 mmHg 70%
08:00 +25°C° 0 mm 5 mps 745 mmHg 60%
09:00 +27°C° 0 mm 6 mps 745 mmHg 50%
10:00 +28°C° 0 mm 5 mps 745 mmHg 48%
11:00 +29°C° 0 mm 5 mps 745 mmHg 46%
12:00 +30°C° 0 mm 4 mps 745 mmHg 43%
13:00 +30°C° 0 mm 4 mps 745 mmHg 45%
14:00 +30°C° 0 mm 3 mps 745 mmHg 47%
15:00 +29°C° 0 mm 3 mps 745 mmHg 48%
16:00 +29°C° 0 mm 2 mps 745 mmHg 51%
17:00 +29°C° 0 mm 2 mps 744 mmHg 53%
18:00 +29°C° 0 mm 1 mps 744 mmHg 56%
19:00 +27°C° 0.7 mm 2 mps 744 mmHg 64%
20:00 +24°C° 0.7 mm 2 mps 744 mmHg 73%
21:00 +21°C° 0.7 mm 3 mps 745 mmHg 82%
22:00 +21°C° 0.4 mm 3 mps 744 mmHg 83%
23:00 +20°C° 0.4 mm 3 mps 744 mmHg 85%

3 August, Tuesday

Time Temperature Precipitation Wind Pressure Humidity
00:00 +20°C° 0.4 mm 3 mps 744 mmHg 87%
01:00 +20°C° 0 mm 3 mps 744 mmHg 88%
02:00 +19°C° 0 mm 3 mps 744 mmHg 89%
03:00 +19°C° 0 mm 3 mps 744 mmHg 91%
04:00 +20°C° 0 mm 3 mps 744 mmHg 88%
05:00 +21°C° 0 mm 3 mps 744 mmHg 86%
06:00 +22°C° 0 mm 3 mps 744 mmHg 83%
07:00 +24°C° 0 mm 3 mps 744 mmHg 74%
08:00 +26°C° 0 mm 4 mps 744 mmHg 64%
09:00 +28°C° 0 mm 4 mps 744 mmHg 54%
10:00 +30°C° 0 mm 4 mps 744 mmHg 48%
11:00 +33°C° 0 mm 4 mps 743 mmHg 42%
12:00 +34°C° 0 mm 5 mps 743 mmHg 36%
13:00 +35°C° 0 mm 5 mps 743 mmHg 34%
14:00 +36°C° 0 mm 5 mps 743 mmHg 31%
15:00 +36°C° 0 mm 5 mps 743 mmHg 29%
16:00 +35°C° 0 mm 5 mps 743 mmHg 35%
17:00 +33°C° 0 mm 4 mps 743 mmHg 41%
18:00 +32°C° 0 mm 4 mps 743 mmHg 47%
19:00 +28°C° 0.2 mm 3 mps 743 mmHg 60%
20:00 +25°C° 0.2 mm 3 mps 744 mmHg 72%
21:00 +22°C° 0.2 mm 3 mps 744 mmHg 84%
22:00 +21°C° 0.3 mm 2 mps 745 mmHg 87%
23:00 +20°C° 0.3 mm 2 mps 745 mmHg 90%

4 August, Wednesday

Time Temperature Precipitation Wind Pressure Humidity
00:00 +20°C° 0.3 mm 2 mps 745 mmHg 92%
01:00 +20°C° 0 mm 2 mps 745 mmHg 93%
02:00 +20°C° 0 mm 1 mps 746 mmHg 94%
03:00 +20°C° 0 mm 1 mps 746 mmHg 94%
04:00 +20°C° 0 mm 1 mps 746 mmHg 92%
05:00 +21°C° 0 mm 1 mps 746 mmHg 90%
06:00 +21°C° 0 mm 1 mps 747 mmHg 88%
07:00 +22°C° 0 mm 1 mps 747 mmHg 84%
08:00 +23°C° 0 mm 1 mps 747 mmHg 79%
09:00 +24°C° 0 mm 1 mps 748 mmHg 74%
10:00 +23°C° 0.6 mm 2 mps 748 mmHg 79%
11:00 +21°C° 0.6 mm 2 mps 748 mmHg 84%
12:00 +20°C° 0.6 mm 2 mps 748 mmHg 88%
13:00 +23°C° 0.1 mm 2 mps 748 mmHg 81%
14:00 +24°C° 0.1 mm 2 mps 748 mmHg 75%
15:00 +25°C° 0.1 mm 2 mps 749 mmHg 68%
16:00 +25°C° 0 mm 2 mps 749 mmHg 68%
17:00 +24°C° 0 mm 2 mps 749 mmHg 68%
18:00 +24°C° 0 mm 3 mps 749 mmHg 68%
19:00 +23°C° 0 mm 2 mps 749 mmHg 74%
20:00 +20°C° 0 mm 2 mps 749 mmHg 79%
21:00 +19°C° 0 mm 2 mps 749 mmHg 84%
22:00 +19°C° 0 mm 2 mps 750 mmHg 85%
23:00 +18°C° 0 mm 2 mps 750 mmHg 85%
Show more